2007-01-15T12:00:00Z,16.661729,0.311278
2007-02-15T12:00:00Z,16.933996,0.221986
2007-03-15T12:00:00Z,19.240566,0.154461
2007-04-15T12:00:00Z,21.190251,0.050549
2007-05-15T12:00:00Z,25.147166,0.038228
2007-06-15T12:00:00Z,28.490787,0.072352
2007-07-15T12:00:00Z,28.335531,0.111664
2007-08-15T12:00:00Z,30.535775,0.112313
2007-09-15T12:00:00Z,29.28141,0.118778
2007-10-15T12:00:00Z,26.755657,0.132642
2007-11-15T12:00:00Z,21.840968,0.145449
2007-12-15T12:00:00Z,18.551544,0.222643
2008-01-15T12:00:00Z,16.809442,0.337413
2008-02-15T12:00:00Z,17.161977,0.180772
2008-03-15T12:00:00Z,18.067871,0.190832
2008-04-15T12:00:00Z,21.965852,0.137559
2008-05-15T12:00:00Z,25.779603,0.10837
2008-06-15T12:00:00Z,29.203961,0.064222
2008-07-15T12:00:00Z,29.57252,0.077508
2008-08-15T12:00:00Z,29.184269,0.159728
2008-09-15T12:00:00Z,27.938329,0.064302
2008-10-15T12:00:00Z,24.780325,0.180307
2008-11-15T12:00:00Z,21.034393,0.176234
2008-12-15T12:00:00Z,18.540884,0.414707
2009-01-15T12:00:00Z,17.109992,0.398213
2009-02-15T12:00:00Z,16.689612,0.217348
2009-03-15T12:00:00Z,18.411002,0.135977
2009-04-15T12:00:00Z,20.941523,0.126085
2009-05-15T12:00:00Z,25.96615,0.047578
2009-06-15T12:00:00Z,28.854662,0.101061
2009-07-15T12:00:00Z,28.975022,0.105303
2009-08-15T12:00:00Z,30.300283,0.143235
2009-09-15T12:00:00Z,28.762212,0.14884
2009-10-15T12:00:00Z,25.947367,0.161961
2009-11-15T12:00:00Z,20.83298,0.198631
2009-12-15T12:00:00Z,17.391079,0.338113
2010-01-15T12:00:00Z,14.246345,0.285668
2010-02-15T12:00:00Z,14.09394,0.295715
2010-03-15T12:00:00Z,15.842232,0.115698
2010-04-15T12:00:00Z,21.198416,0.164103
2010-05-15T12:00:00Z,26.128366,0.057642
2010-06-15T12:00:00Z,29.561357,0.135888
2010-07-15T12:00:00Z,29.937523,0.060336
2010-08-15T12:00:00Z,30.881613,0.074131
2010-09-15T12:00:00Z,29.244013,0.06036
2010-10-15T12:00:00Z,25.925312,0.120443
2010-11-15T12:00:00Z,21.503589,0.159761
2010-12-15T12:00:00Z,17.500023,0.298944
2011-01-15T12:00:00Z,15.297435,0.527496
2011-02-15T12:00:00Z,15.125996,0.352448
2011-03-15T12:00:00Z,18.990863,0.123756
2011-04-15T12:00:00Z,22.905424,0.140733
2011-05-15T12:00:00Z,25.371413,0.07378
2011-06-15T12:00:00Z,29.155963,0.101088
2011-07-15T12:00:00Z,30.515958,0.116613
2011-08-15T12:00:00Z,30.79194,0.109807
2011-09-15T12:00:00Z,28.890938,0.074574
2011-10-15T12:00:00Z,25.468723,0.097259
2011-11-15T12:00:00Z,21.162829,0.198525
2011-12-15T12:00:00Z,17.747836,0.359185
2012-01-15T12:00:00Z,16.689954,0.303261
2012-02-15T12:00:00Z,16.537049,0.267781
2012-03-15T12:00:00Z,20.274213,0.12773
2012-04-15T12:00:00Z,24.242523,0.04154
2012-05-15T12:00:00Z,26.762076,0.063608
2012-06-15T12:00:00Z,29.2107,0.056128
2012-07-15T12:00:00Z,29.650006,0.058507
2012-08-15T12:00:00Z,30.255521,0.077365
2012-09-15T12:00:00Z,28.674301,0.090883
2012-10-15T12:00:00Z,25.565849,0.153556
2012-11-15T12:00:00Z,21.342883,0.256046
2012-12-15T12:00:00Z,18.939175,0.26067
2013-01-15T12:00:00Z,16.917223,0.354952
2013-02-15T12:00:00Z,16.721024,0.180949
2013-03-15T12:00:00Z,17.159545,0.206391
2013-04-15T12:00:00Z,20.15238,0.115306
2013-05-15T12:00:00Z,23.709394,0.059337
2013-06-15T12:00:00Z,29.144682,0.114957
2013-07-15T12:00:00Z,29.381706,0.097533
2013-08-15T12:00:00Z,29.772707,0.092907
2013-09-15T12:00:00Z,29.208244,0.077983
2013-10-15T12:00:00Z,25.779603,0.186663
2013-11-15T12:00:00Z,21.743025,0.194998
2013-12-15T12:00:00Z,18.530351,0.376916
2014-01-15T12:00:00Z,16.200954,0.385066
2014-02-15T12:00:00Z,15.773966,0.356944
2014-03-15T12:00:00Z,16.598838,0.167038
2014-04-15T12:00:00Z,20.466199,0.118749
2014-05-15T12:00:00Z,23.569129,0.032995
2014-06-15T12:00:00Z,28.233543,0.050688
2014-07-15T12:00:00Z,29.87149,0.087645
2014-08-15T12:00:00Z,29.822992,0.110402
2014-09-15T12:00:00Z,28.733586,0.084386
2014-10-15T12:00:00Z,25.92591,0.18808
2014-11-15T12:00:00Z,20.333911,0.253957
2014-12-15T12:00:00Z,17.427345,0.218277
2015-01-15T12:00:00Z,17.289258,0.294121
2015-02-15T12:00:00Z,15.798737,0.229508
2015-03-15T12:00:00Z,17.399715,0.259605
2015-04-15T12:00:00Z,22.205231,0.125233
2015-05-15T12:00:00Z,25.571663,0.054669
2015-06-15T12:00:00Z,29.245383,0.113323
2015-07-15T12:00:00Z,28.869729,0.06856
2015-08-15T12:00:00Z,30.240981,0.134874
2015-09-15T12:00:00Z,28.767083,0.048864
2015-10-15T12:00:00Z,25.648624,0.192493
2015-11-15T12:00:00Z,21.896498,0.164401
2015-12-15T12:00:00Z,19.073186,0.282643
2016-01-15T12:00:00Z,14.864784,0.430028
2016-02-15T12:00:00Z,16.252938,0.242437
2016-03-15T12:00:00Z,19.198252,0.087942
2016-04-15T12:00:00Z,22.188553,0.095077
2016-05-15T12:00:00Z,25.668613,0.118449
2016-06-15T12:00:00Z,29.014932,0.103307
2016-07-15T12:00:00Z,29.982054,0.098586
2016-08-15T12:00:00Z,30.157015,0.066087
2016-09-15T12:00:00Z,30.054358,0.078041
2016-10-15T12:00:00Z,26.712967,0.136871
2016-11-15T12:00:00Z,22.793208,0.196211
2016-12-15T12:00:00Z,19.237093,0.28444
2017-01-15T12:00:00Z,17.647749,0.276543
2017-02-15T12:00:00Z,18.075267,0.131793
2017-03-15T12:00:00Z,20.260175,0.183536
2017-04-15T12:00:00Z,23.463251,0.098633
2017-05-15T12:00:00Z,25.216001,0.078234
2017-06-15T12:00:00Z,28.763988,0.088642
2017-07-15T12:00:00Z,30.566534,0.055205
2017-08-15T12:00:00Z,30.23228,0.059221
2017-09-15T12:00:00Z,28.123964,0.061261
2017-10-15T12:00:00Z,26.433997,0.128747
2017-11-15T12:00:00Z,22.315585,0.188805
2017-12-15T12:00:00Z,17.720495,0.328362
2018-01-15T12:00:00Z,14.748186,0.491297
2018-02-15T12:00:00Z,18.001421,0.297505
2018-03-15T12:00:00Z,20.007904,0.120322
2018-04-15T12:00:00Z,21.787536,0.067098
2018-05-15T12:00:00Z,26.892168,0.182135
2018-06-15T12:00:00Z,29.140713,0.095646
2018-07-15T12:00:00Z,29.39448,0.103338
2018-08-15T12:00:00Z,29.76771,0.087156
2018-09-15T12:00:00Z,29.143264,0.075974
2018-10-15T12:00:00Z,26.229521,0.181707
2018-11-15T12:00:00Z,20.487209,0.241867
2018-12-15T12:00:00Z,16.555413,0.358622
2019-01-15T12:00:00Z,14.469404,0.349974
2019-02-15T12:00:00Z,15.608684,0.307243
2019-03-15T12:00:00Z,17.951908,0.158087
2019-04-15T12:00:00Z,21.214051,0.108531
2019-05-15T12:00:00Z,25.796692,0.078869
2019-06-15T12:00:00Z,29.407631,0.104618
2019-07-15T12:00:00Z,29.655491,0.093167
2019-08-15T12:00:00Z,30.451036,0.060625
2019-09-15T12:00:00Z,29.864403,0.094482
2019-10-15T12:00:00Z,26.306152,0.165393
2019-11-15T12:00:00Z,19.114112,0.350807
2019-12-15T12:00:00Z,16.965061,0.354663
2020-01-15T12:00:00Z,16.349589,0.288266
2020-02-15T12:00:00Z,15.122198,0.324743
2020-03-15T12:00:00Z,20.151867,0.153484
2020-04-15T12:00:00Z,23.320969,0.107262
2020-05-15T12:00:00Z,26.138116,0.117557
2020-06-15T12:00:00Z,28.88855,0.079973
2020-07-15T12:00:00Z,29.929142,0.201142
2020-08-15T12:00:00Z,30.404767,0.067918
2020-09-15T12:00:00Z,28.586965,0.132075
2020-10-15T12:00:00Z,25.680191,0.088969
2020-11-15T12:00:00Z,22.098498,0.074434
2020-12-15T12:00:00Z,17.2354,0.292515
2021-01-15T12:00:00Z,14.801156,0.430369
2021-02-15T12:00:00Z,14.260453,0.245465
2021-03-15T12:00:00Z,17.674291,0.451272
2021-04-15T12:00:00Z,21.716582,0.269178
2021-05-15T12:00:00Z,25.261762,0.124123
2021-06-15T12:00:00Z,29.179026,0.084037
2021-07-15T12:00:00Z,29.97385,0.154567
2021-08-15T12:00:00Z,30.67499,0.100239
2021-09-15T12:00:00Z,28.95645,0.052568
2021-10-15T12:00:00Z,26.476453,0.078404
2021-11-15T12:00:00Z,21.285438,0.213568
2021-12-15T12:00:00Z,19.511106,0.114826
2022-01-15T12:00:00Z,16.469361,0.428499
2022-02-15T12:00:00Z,12.862785,0.268769
2022-03-15T12:00:00Z,16.353153,0.244589
2022-04-15T12:00:00Z,22.048918,0.092541
2022-05-15T12:00:00Z,27.034576,0.098886
2022-06-15T12:00:00Z,29.239533,0.073225
2022-07-15T12:00:00Z,30.240782,0.086481
2022-08-15T12:00:00Z,30.134276,0.069332
2022-09-15T12:00:00Z,29.700614,0.082518
2022-10-15T12:00:00Z,25.666491,0.115338
2022-11-15T12:00:00Z,21.800981,0.189273
2022-12-15T12:00:00Z,16.611146,0.311344
2023-01-15T12:00:00Z,15.504901,0.347286
2023-02-15T12:00:00Z,15.306149,0.134586
2023-03-15T12:00:00Z,20.778176,0.209245
2023-04-15T12:00:00Z,22.511795,0.148475
2023-05-15T12:00:00Z,26.311963,0.140297
2023-06-15T12:00:00Z,29.653022,0.332489
2023-07-15T12:00:00Z,30.424384,0.363126
2023-08-15T12:00:00Z,30.656887,0.286634
2023-09-15T12:00:00Z,30.243344,0.169108
2023-10-15T12:00:00Z,26.310045,0.165704
2023-11-15T12:00:00Z,20.300832,0.312981
2023-12-15T12:00:00Z,16.613845,0.29755
